Wind_Speed
32 32 34 35 36 39 42 45 47 48 50 52 54 56 56 56 57 57 58 58 58 57 57 56 56 55 54 54 53 52 51 50 48 47 46 45 44 44 42 40 39 38 38 37
29 29 31 32 33 35 38 42 44 46 48 50 53 56 56 57 56 57 58 58 58 57 57 57 57 57 56 55 54 54 52 51 50 49 47 46 46 45 44 43 41 40 39 38
25 25 26 27 29 31 34 37 39 41 43 46 50 54 56 56 56 57 57 58 58 58 57 57 58 58 57 57 55 54 53 52 52 50 49 48 47 46 45 44 43 42 41 40
22 22 23 24 25 26 29 31 35 37 39 41 44 48 53 55 56 57 57 57 58 58 57 57 57 57 57 57 56 55 54 54 53 52 51 49 48 47 46 45 44 44 43 42
21 20 21 21 22 24 25 27 30 33 36 39 41 45 49 51 53 55 56 57 57 57 57 57 57 57 57 57 57 56 56 55 54 53 53 51 50 49 48 47 46 46 44 43
21 20 20 20 21 23 23 24 27 30 32 36 38 42 46 47 49 51 53 55 56 56 56 57 58 58 58 58 57 57 57 56 55 54 53 53 52 51 51 50 48 47 46 45
20 19 20 20 20 21 22 23 24 26 29 32 34 39 43 45 47 49 51 53 54 55 56 56 57 58 58 58 58 57 57 57 57 56 55 55 54 53 52 51 50 49 48 47
20 18 18 19 19 20 20 21 23 25 28 29 31 34 38 42 45 47 49 51 52 54 55 56 57 57 57 58 58 58 57 58 57 57 56 56 55 55 53 52 51 51 49 49
20 19 18 19 18 19 18 19 21 24 26 28 29 31 35 38 41 44 46 48 50 53 55 55 56 57 57 57 57 57 57 58 58 58 57 57 57 56 55 54 53 52 51 50
21 19 18 18 19 18 18 18 18 21 24 26 27 28 32 34 37 41 43 46 48 51 52 54 55 56 57 57 57 57 57 56 56 57 57 57 56 56 56 56 55 53 52 51
20 19 17 17 18 18 18 19 19 19 22 24 26 28 30 32 34 37 41 44 46 49 51 52 53 54 55 56 56 56 57 56 56 56 57 57 56 56 56 56 56 55 53 52
19 19 18 17 17 17 17 18 19 18 19 23 24 26 28 30 32 34 37 40 43 46 48 50 52 53 53 55 55 56 56 56 56 56 57 57 56 56 56 56 56 56 55 54
19 19 19 17 16 15 15 15 17 18 19 21 23 23 25 28 30 32 34 37 39 43 46 48 50 52 52 53 54 54 55 55 56 56 56 57 56 56 56 56 56 56 55 54
20 19 19 18 16 15 15 15 15 17 19 20 22 22 23 26 28 29 30 34 37 40 44 46 49 51 52 53 53 53 53 54 54 55 55 56 56 57 56 56 56 55 55 55
21 20 18 17 15 15 15 15 15 16 18 19 19 20 22 24 26 27 29 31 34 37 41 44 47 49 50 51 52 52 53 53 53 54 55 56 56 57 57 57 56 56 55 55
20 20 18 16 15 15 16 16 16 16 16 19 20 21 20 22 25 27 28 30 32 34 36 40 43 47 48 50 50 51 52 53 53 54 55 55 56 56 57 56 56 57 56 55
20 20 18 16 15 15 15 16 16 17 17 18 20 20 20 21 22 24 26 28 31 32 34 36 39 43 45 48 49 50 51 52 53 53 54 55 56 56 57 57 56 56 56 55
20 19 18 17 15 14 14 14 15 16 16 17 19 20 20 20 21 23 25 26 27 30 32 34 37 39 42 46 48 49 50 51 52 53 54 55 55 56 57 57 56 56 56 55
21 20 18 17 16 15 14 14 14 14 15 16 18 20 21 21 21 23 24 25 26 28 30 31 34 36 39 42 45 48 49 49 50 51 52 53 54 55 56 56 56 56 56 56
21 20 19 17 17 16 15 14 14 14 14 15 16 19 21 22 21 23 24 25 25 26 28 29 31 33 36 39 42 45 46 48 49 50 52 52 53 54 55 55 56 56 56 56
21 19 18 18 17 17 16 15 14 14 14 14 15 17 18 20 21 22 24 26 26 27 27 29 30 31 32 35 38 41 43 45 47 48 50 51 52 53 54 55 55 56 56 56
20 20 19 17 17 16 16 15 15 14 14 14 15 16 17 19 20 21 22 23 25 27 27 28 29 30 31 32 34 36 39 42 43 45 46 48 50 51 52 54 55 55 55 56
20 19 18 18 17 17 17 16 16 16 15 15 15 15 16 17 18 20 21 22 24 26 27 28 28 29 30 31 32 34 35 38 40 41 43 44 46 47 49 50 51 52 53 54
20 19 19 19 17 17 17 17 17 17 16 16 16 16 17 17 17 19 21 22 23 25 26 26 28 29 30 31 32 33 34 35 36 38 40 41 43 44 46 47 48 49 50 51
20 20 20 19 18 18 17 17 17 17 16 16 17 17 17 18 18 19 20 21 22 23 24 25 26 27 29 30 31 31 32 34 35 36 37 39 39 41 43 43 44 45 47 48
20 20 20 19 19 18 17 17 17 17 17 17 17 16 17 17 17 18 19 20 21 22 23 24 25 26 27 29 30 31 32 34 34 34 35 36 37 38 40 41 42 43 44 45
Wind_Direction
280 274 267 262 260 258 255 252 249 247 245 244 242 240 237 235 234 233 232 230 230 230 230 230 229 229 229 230 230 230 230 230 231 231 231 232 232 232 232 233 233 232 232 233
284 279 272 265 263 261 256 253 249 247 246 245 243 240 237 234 233 232 231 231 230 229 230 229 229 229 229 229 230 230 230 230 231 231 231 231 232 232 233 233 234 233 233 234
291 287 280 270 263 260 255 253 250 249 246 246 244 241 237 234 233 232 231 230 229 229 229 229 229 228 229 229 229 229 229 229 230 230 230 230 231 232 233 233 234 234 234 235
293 290 284 274 265 260 257 253 251 249 247 246 244 243 237 234 233 232 231 230 229 229 229 229 229 228 228 228 228 228 229 229 229 230 230 231 231 232 233 233 234 235 235 237
293 292 286 278 270 265 261 256 253 250 249 248 245 244 240 236 234 232 231 230 229 229 229 228 228 228 228 228 227 228 228 229 230 230 230 230 230 231 232 233 234 235 236 237
294 292 287 282 276 270 267 264 257 253 250 250 246 245 242 237 235 232 231 230 228 228 227 227 228 228 227 228 228 228 228 229 229 230 230 231 231 232 232 233 235 235 236 237
295 293 288 283 280 273 270 268 261 255 252 251 247 245 243 239 235 233 231 229 228 227 227 226 227 228 227 228 228 228 229 229 229 230 231 231 232 232 233 234 234 235 237 237
301 295 287 284 283 279 274 269 262 256 254 250 246 245 242 239 235 233 231 229 227 226 226 226 227 227 227 228 228 229 229 229 229 230 231 231 232 232 233 233 234 235 236 237
308 297 289 284 284 282 277 269 265 261 259 253 250 248 244 237 234 232 231 229 228 227 226 226 226 226 227 227 228 229 230 230 230 230 231 231 232 233 233 233 235 236 236 237
314 304 296 289 283 280 277 273 268 263 259 253 250 249 244 237 234 232 230 229 228 228 227 227 227 227 227 227 228 229 229 230 230 230 230 230 232 233 233 234 234 235 236 237
316 309 303 297 286 282 279 271 265 264 260 254 252 249 244 239 235 234 232 231 229 228 227 227 226 227 227 227 227 228 229 230 230 230 230 230 231 232 233 233 233 234 236 237
317 313 308 302 292 286 283 274 266 262 260 252 253 252 246 241 237 234 233 232 230 228 227 227 226 225 226 226 227 228 229 229 229 230 230 230 231 232 232 233 233 234 235 237
321 316 312 306 296 286 283 277 269 264 262 255 252 251 246 242 240 237 234 232 230 229 227 227 226 225 226 226 226 227 229 229 230 230 230 230 230 231 232 233 234 235 236 237
327 320 312 307 300 290 283 279 275 269 264 255 250 250 247 243 240 239 234 232 230 229 228 226 226 226 227 227 227 228 229 230 230 230 230 230 230 231 232 233 234 235 236 237
329 327 318 307 299 290 284 281 278 273 265 255 251 251 249 245 242 240 237 234 232 230 228 227 226 227 227 228 228 228 228 229 230 230 231 231 231 231 232 233 235 236 237 238
328 328 325 316 303 292 286 284 278 274 267 255 251 253 253 248 246 244 240 236 234 232 229 228 228 227 228 227 228 228 229 229 230 230 231 231 232 232 232 233 234 235 237 238
328 327 326 323 316 304 293 287 280 276 271 263 256 252 249 247 246 245 242 240 236 233 229 228 227 228 228 228 228 229 229 230 230 231 232 233 233 234 234 234 235 236 237 238
329 327 326 326 321 312 308 297 287 278 273 266 258 252 249 247 243 242 241 240 238 233 229 229 228 227 228 228 228 229 230 231 231 232 232 233 233 234 235 235 236 236 237 238
330 327 324 323 321 318 312 302 294 285 278 270 262 255 251 249 246 242 240 238 236 233 228 227 228 228 228 229 230 231 231 231 232 232 233 233 234 235 236 236 236 237 239 239
332 327 322 320 319 321 317 308 298 291 284 278 270 261 254 252 248 242 238 237 235 233 229 227 227 228 229 229 229 230 231 232 233 233 234 234 235 236 236 237 237 238 239 240
332 328 323 319 318 320 319 314 303 296 293 286 278 270 259 254 250 244 241 239 236 234 232 230 229 230 229 229 228 229 230 231 233 234 234 235 235 236 237 237 237 238 239 240
329 328 325 321 319 319 318 314 307 300 294 289 282 275 266 258 250 245 242 240 237 234 233 233 232 231 231 230 229 229 230 231 232 233 233 234 234 235 236 237 238 239 240 241
326 325 325 324 322 317 314 308 304 301 296 290 285 279 271 262 253 249 245 242 238 236 235 235 233 231 232 231 231 230 229 229 230 232 233 233 234 234 236 237 238 239 240 241
324 322 320 321 322 318 314 309 303 300 298 294 288 281 273 265 254 249 246 244 241 238 236 235 234 232 231 232 232 231 231 231 231 231 233 234 235 235 236 237 238 239 240 241
323 320 319 318 317 316 313 309 305 302 298 294 291 287 279 272 262 253 249 246 244 240 236 234 233 233 233 233 233 233 232 232 233 233 234 235 235 235 236 236 237 238 239 240
322 320 318 317 316 315 312 309 306 304 300 296 293 288 281 275 268 259 252 248 245 243 241 237 234 233 233 234 235 235 235 233 233 234 235 235 235 236 236 236 237 238 239 239
Height
5613 5612 5611 5613 5614 5616 5617 5619 5622 5626 5629 5633 5637 5642 5649 5655 5662 5669 5675 5682 5689 5696 5702 5708 5715 5721 5727 5732 5738 5744 5749 5754 5760 5765 5770 5775 5779 5783 5787 5791 5795 5799 5802 5805
5603 5601 5601 5602 5602 5603 5604 5605 5609 5612 5615 5618 5622 5627 5633 5640 5647 5654 5661 5668 5675 5682 5689 5696 5702 5708 5714 5721 5727 5733 5739 5744 5750 5755 5760 5765 5770 5774 5779 5783 5787 5791 5794 5798
5594 5593 5591 5591 5590 5591 5592 5594 5597 5600 5602 5604 5608 5612 5619 5626 5633 5640 5647 5655 5662 5669 5676 5683 5689 5696 5702 5709 5715 5722 5727 5734 5739 5745 5750 5755 5760 5765 5770 5774 5778 5783 5787 5790
5586 5585 5583 5582 5581 5581 5583 5585 5587 5589 5591 5593 5597 5599 5605 5612 5619 5626 5634 5641 5649 5656 5663 5670 5676 5683 5690 5697 5704 5710 5716 5722 5728 5734 5740 5746 5751 5757 5761 5766 5770 5774 5778 5782
5579 5578 5576 5575 5575 5574 5575 5577 5578 5580 5581 5583 5585 5588 5593 5599 5606 5613 5621 5628 5635 5643 5650 5657 5664 5671 5678 5685 5692 5698 5705 5711 5717 5724 5730 5735 5741 5746 5751 5756 5761 5766 5770 5774
5573 5571 5570 5569 5568 5568 5568 5569 5570 5570 5571 5572 5576 5578 5582 5587 5594 5601 5607 5614 5622 5630 5637 5644 5651 5658 5665 5672 5679 5686 5693 5700 5706 5712 5719 5725 5730 5736 5741 5746 5751 5756 5761 5765
5567 5566 5564 5563 5563 5562 5562 5562 5562 5561 5561 5563 5566 5568 5571 5576 5582 5588 5595 5601 5609 5616 5624 5631 5638 5645 5652 5660 5667 5674 5680 5687 5694 5701 5707 5713 5719 5725 5731 5736 5741 5746 5751 5756
5561 5560 5557 5556 5556 5555 5555 5555 5556 5555 5554 5556 5557 5558 5562 5566 5571 5577 5583 5590 5596 5604 5611 5619 5626 5633 5640 5647 5654 5662 5668 5675 5682 5689 5695 5702 5708 5714 5720 5725 5731 5736 5741 5746
5554 5553 5552 5550 5549 5549 5548 5547 5548 5548 5547 5548 5548 5550 5553 5557 5562 5567 5573 5579 5585 5592 5599 5606 5614 5621 5628 5635 5642 5649 5656 5663 5670 5677 5683 5690 5696 5702 5708 5714 5720 5725 5731 5735
5550 5548 5546 5545 5544 5543 5543 5542 5542 5541 5540 5540 5541 5542 5545 5548 5553 5558 5563 5568 5574 5580 5587 5595 5602 5609 5616 5624 5631 5637 5644 5651 5658 5665 5671 5678 5684 5691 5697 5703 5708 5714 5720 5725
5545 5543 5541 5539 5537 5536 5536 5536 5535 5534 5534 5535 5535 5538 5538 5541 5545 5549 5554 5559 5564 5570 5576 5583 5590 5598 5605 5612 5619 5625 5632 5639 5646 5653 5659 5666 5673 5679 5685 5691 5697 5703 5708 5713
5541 5538 5535 5534 5532 5530 5530 5529 5529 5529 5528 5528 5529 5533 5531 5534 5537 5540 5545 5549 5555 5560 5566 5572 5579 5586 5593 5600 5607 5613 5620 5627 5634 5641 5647 5654 5661 5667 5674 5679 5686 5691 5697 5702
5536 5534 5531 5528 5529 5527 5525 5523 5522 5523 5522 5522 5523 5526 5525 5527 5530 5533 5536 5540 5545 5550 5556 5562 5568 5575 5581 5588 5595 5602 5608 5615 5622 5629 5635 5642 5649 5656 5662 5668 5674 5680 5686 5691
5532 5529 5527 5525 5522 5520 5519 5519 5517 5517 5516 5516 5517 5518 5519 5521 5524 5526 5529 5532 5536 5541 5546 5552 5558 5564 5571 5577 5584 5591 5597 5604 5610 5617 5623 5630 5637 5644 5650 5656 5662 5668 5674 5679
5529 5526 5522 5520 5517 5516 5515 5514 5513 5512 5511 5511 5512 5512 5513 5515 5517 5519 5521 5525 5528 5532 5537 5542 5548 5554 5560 5567 5573 5580 5586 5593 5599 5605 5612 5618 5625 5632 5638 5644 5650 5656 5662 5668
5525 5522 5519 5516 5514 5512 5511 5509 5508 5507 5506 5506 5507 5508 5508 5509 5510 5512 5514 5517 5520 5524 5528 5533 5538 5544 5550 5556 5563 5569 5576 5582 5588 5594 5601 5607 5613 5620 5626 5632 5638 5644 5650 5656
5522 5519 5516 5513 5510 5508 5506 5505 5504 5502 5501 5501 5501 5503 5503 5503 5505 5506 5507 5510 5513 5516 5520 5525 5529 5534 5540 5546 5552 5559 5565 5571 5577 5583 5589 5595 5602 5608 5614 5620 5626 5632 5638 5643
5519 5515 5512 5509 5507 5504 5505 5500 5499 5497 5496 5496 5496 5496 5497 5498 5499 5500 5501 5503 5506 5509 5513 5517 5521 5526 5531 5536 5542 5548 5554 5560 5566 5572 5578 5584 5590 5596 5602 5608 5614 5620 5625 5631
5515 5512 5509 5506 5503 5500 5499 5496 5494 5493 5492 5491 5490 5491 5491 5492 5493 5494 5495 5497 5499 5502 5505 5509 5513 5517 5522 5526 5532 5538 5543 5549 5554 5560 5566 5572 5578 5584 5590 5596 5602 5607 5612 5618
5512 5509 5506 5502 5499 5497 5496 5493 5489 5489 5488 5487 5485 5485 5485 5486 5487 5489 5490 5491 5493 5496 5498 5502 5505 5509 5513 5517 5522 5528 5533 5538 5543 5549 5554 5560 5566 5572 5577 5583 5589 5594 5600 5605
5509 5505 5502 5498 5495 5493 5492 5488 5486 5486 5484 5482 5480 5479 5479 5479 5481 5482 5483 5485 5487 5489 5492 5495 5498 5502 5505 5509 5513 5518 5523 5528 5533 5538 5543 5548 5553 5559 5565 5571 5576 5581 5587 5592
5505 5502 5498 5495 5492 5492 5487 5484 5483 5481 5478 5477 5475 5474 5474 5474 5474 5475 5476 5478 5480 5483 5486 5489 5491 5494 5498 5501 5505 5509 5514 5518 5523 5528 5532 5537 5541 5547 5552 5557 5563 5568 5573 5578
5502 5499 5495 5492 5490 5486 5483 5480 5478 5476 5474 5472 5471 5469 5469 5468 5469 5469 5470 5472 5474 5476 5479 5481 5484 5487 5490 5494 5497 5501 5505 5509 5513 5518 5522 5526 5531 5535 5540 5545 5550 5555 5560 5565
5498 5494 5491 5487 5485 5481 5479 5476 5473 5471 5469 5467 5466 5464 5464 5463 5463 5464 5464 5466 5467 5469 5472 5474 5477 5480 5483 5486 5490 5493 5497 5501 5505 5509 5513 5517 5521 5525 5529 5534 5538 5543 5547 5552
5493 5490 5486 5483 5480 5477 5475 5471 5469 5467 5464 5462 5461 5459 5458 5458 5457 5458 5458 5460 5461 5463 5465 5468 5470 5473 5476 5479 5482 5485 5489 5492 5496 5500 5504 5507 5511 5515 5519 5523 5527 5531 5536 5540
5489 5485 5482 5479 5476 5473 5470 5467 5464 5462 5460 5458 5456 5454 5453 5452 5451 5452 5453 5454 5455 5457 5459 5461 5464 5466 5469 5472 5475 5478 5481 5485 5488 5492 5495 5498 5502 5505 5509 5513 5517 5521 5525 5528